Location: 22
(39.7117°N, 89.5929°W)
Time: 18:46:53
(UTC-05:00)

Gurwin Techsat 1B - Pass Details

Date: 04 April 2023
Orbit: 811 x 813 km, 98.9° (Epoch: 06 June)

Event Time Altitude Azimuth Distance (km) Brightness Sun altitude
Rises 02:38:50 0° 32° (NNE) 3,344 12.7 -39.4°
Reaches altitude 10° 02:42:01 10° 52° (NE) 2,407 11.7 -39.1°
Enters shadow 02:44:29 17° 79° (E) 1,981 11.0 -38.8°
